TimeEET,TemperatureF,Dew PointF,Humidity,Sea Level PressureIn,VisibilityMPH,Wind Direction,Wind SpeedMPH,Gust SpeedMPH,PrecipitationIn,Events,Conditions,WindDirDegrees,DateUTC
12:00 AM,84.2,59.0,42,29.65,-9999.0,Variable,2.3,-,N/A,,Clear,0,2013-08-05 22:00:00
1:00 AM,82.4,57.2,42,29.65,-9999.0,NNW,2.3,-,N/A,,Clear,330,2013-08-05 23:00:00
2:00 AM,82.4,48.2,30,29.65,-9999.0,North,3.5,-,N/A,,Clear,10,2013-08-06 00:00:00
3:00 AM,84.2,51.8,33,29.65,-9999.0,North,2.3,-,N/A,,Clear,360,2013-08-06 01:00:00
4:00 AM,84.2,64.4,51,29.65,-9999.0,North,10.4,-,N/A,,Clear,10,2013-08-06 02:00:00
5:00 AM,82.4,66.2,58,29.65,-9999.0,North,9.2,-,N/A,,Clear,10,2013-08-06 03:00:00
6:00 AM,84.2,68.0,58,29.65,-9999.0,North,8.1,-,N/A,,Clear,10,2013-08-06 04:00:00
7:00 AM,89.6,68.0,49,29.68,-9999.0,North,8.1,-,N/A,,Clear,10,2013-08-06 05:00:00
8:00 AM,91.4,60.8,36,29.68,-9999.0,NNE,9.2,-,N/A,,Clear,20,2013-08-06 06:00:00
9:00 AM,95.0,53.6,25,29.68,-9999.0,NNE,12.7,-,N/A,,Clear,30,2013-08-06 07:00:00
10:00 AM,96.8,50.0,20,29.68,-9999.0,NNE,11.5,-,N/A,,Clear,30,2013-08-06 08:00:00
11:00 AM,98.6,48.2,18,29.68,-9999.0,NNE,10.4,-,N/A,,Clear,30,2013-08-06 09:00:00
12:00 PM,100.4,41.0,13,29.68,-9999.0,NNE,11.5,-,N/A,,Clear,20,2013-08-06 10:00:00
1:00 PM,104.0,42.8,12,29.65,-9999.0,NNE,9.2,-,N/A,,Clear,30,2013-08-06 11:00:00
2:00 PM,107.6,42.8,11,29.65,-9999.0,East,5.8,-,N/A,,Clear,80,2013-08-06 12:00:00
3:00 PM,100.4,55.4,22,29.65,-9999.0,SSE,9.2,-,N/A,,Clear,160,2013-08-06 13:00:00
4:00 PM,98.6,55.4,24,29.62,-9999.0,SSE,8.1,-,N/A,,Clear,160,2013-08-06 14:00:00
5:00 PM,95.0,64.4,36,29.62,-9999.0,South,8.1,-,N/A,,Clear,170,2013-08-06 15:00:00
6:00 PM,93.2,62.6,36,29.62,-9999.0,South,4.6,-,N/A,,Clear,170,2013-08-06 16:00:00
7:00 PM,91.4,64.4,41,29.62,-9999.0,SE,5.8,-,N/A,,Clear,130,2013-08-06 17:00:00
8:00 PM,87.8,64.4,46,29.65,-9999.0,Variable,3.5,-,N/A,,Clear,0,2013-08-06 18:00:00
9:00 PM,86.0,71.6,62,29.65,-9999.0,South,5.8,-,N/A,,Clear,170,2013-08-06 19:00:00
10:00 PM,84.2,71.6,66,29.65,-9999.0,South,4.6,-,N/A,,Clear,170,2013-08-06 20:00:00
11:00 PM,84.2,71.6,66,29.65,-9999.0,South,3.5,-,N/A,,Clear,170,2013-08-06 21:00:00